TIANTONG-1 1

Last updated on Thu Jul 03 2025 00:02:47 GMT+0000 (Coordinated Universal Time)

1 41725U 16048A 25183.62171980 -.00000312 00000+0 00000+0 0 9996 2 41725 3.2074 39.0219 0003376 36.0751 171.0370 1.00272056 32762
UTC large
Height (km)
Speed (km/s)
/
Latitude / Longitude
Inclination (degrees)
Orbital Period (minutes)
Azimuth
Elevation
Range (km)
Doppler Factor

Next 0 passes for location: London (51.5072 / 0.1276)

Sorry there are no passes over London.